Orbital Elements at Epoch 2459000.5 (2020-May-31.0) TDB
Reference: JPL 12 (heliocentric ecliptic J2000)
Element | Value | Uncertainty (1-sigma) | Units |
e | .05620668129677436 | 9.3095e-08 | |
a | 1.887540548462765 | 8.4185e-09 | au |
q | 1.78144815842058 | 1.7634e-07 | au |
i | 18.38196022056334 | 5.5918e-06 | deg |
node | 262.8416494784 | 1.564e-05 | deg |
peri | 82.99904851740047 | 6.1503e-05 | deg |
M | 345.4784249077078 | 5.7303e-05 | deg |
tp | 2459038.707980726884 (2020-Jul-08.20798073) | 0.0001507 | TDB |
period | 947.2025571784694 2.59 | 6.3369e-06 1.735e-08 | d yr |
n | .3800665414928454 | 2.5427e-09 | deg/d |
Q | 1.99363293850495 | 8.8917e-09 | au |
|
| | Orbit Determination Parameters
Additional Information
|